Satellite-Ground Cal/Val Region Overpasses Predictions

Prediction of Satellite NPP Overpassing Cal/Val Region: PacNW

Region Location: (Latitude: 10.00, Longitude: 139.50) to (Latitude: 22.70, Longitude: 165.60).

Table of predicted overpasses for the next 14.0 days since TLE Epoch: 3/18/2022
Interval Starting Time Starting Location Ending Time Ending Location
1 03/19/2022 02:39:32 ( 10.02, 159.88) 03/19/2022 02:43:08 ( 22.70, 156.87)
2 03/19/2022 15:11:26 ( 22.65, 157.11) 03/19/2022 15:15:01 ( 10.03, 154.11)
3 03/20/2022 02:20:31 ( 10.04, 164.64) 03/20/2022 02:24:06 ( 22.66, 161.63)
4 03/20/2022 14:52:24 ( 22.68, 161.87) 03/20/2022 14:55:59 ( 10.06, 158.87)
5 03/21/2022 03:42:58 ( 10.01, 144.02) 03/21/2022 03:46:34 ( 22.70, 141.01)
6 03/21/2022 14:34:34 ( 18.43, 165.59) 03/21/2022 14:36:57 ( 10.03, 163.62)
7 03/21/2022 16:14:52 ( 22.65, 141.25) 03/21/2022 16:16:54 ( 15.49, 139.51)
8 03/22/2022 03:23:57 ( 10.04, 148.78) 03/22/2022 03:27:32 ( 22.66, 145.77)
9 03/22/2022 15:55:50 ( 22.68, 146.01) 03/22/2022 15:59:25 ( 10.06, 143.01)
10 03/23/2022 03:04:54 ( 10.01, 153.54) 03/23/2022 03:08:30 ( 22.69, 150.53)
11 03/23/2022 15:36:48 ( 22.65, 150.76) 03/23/2022 15:40:23 ( 10.03, 147.76)
12 03/24/2022 02:45:53 ( 10.04, 158.29) 03/24/2022 02:49:28 ( 22.66, 155.29)
13 03/24/2022 15:17:46 ( 22.68, 155.53) 03/24/2022 15:21:22 ( 10.00, 152.51)
14 03/25/2022 02:26:51 ( 10.01, 163.06) 03/25/2022 02:30:27 ( 22.69, 160.04)
15 03/25/2022 14:58:44 ( 22.65, 160.28) 03/25/2022 15:02:19 ( 10.03, 157.28)
16 03/26/2022 02:10:30 ( 19.49, 165.59) 03/26/2022 02:11:24 ( 22.66, 164.81)
17 03/26/2022 03:49:19 ( 10.04, 142.43) 03/26/2022 03:52:49 ( 22.37, 139.50)
18 03/26/2022 14:39:42 ( 22.68, 165.04) 03/26/2022 14:43:18 ( 10.00, 162.03)
19 03/26/2022 16:21:12 ( 22.67, 139.67) 03/26/2022 16:21:23 ( 22.03, 139.51)
20 03/27/2022 03:30:17 ( 10.02, 147.20) 03/27/2022 03:33:53 ( 22.70, 144.18)
21 03/27/2022 16:02:10 ( 22.64, 144.42) 03/27/2022 16:05:45 ( 10.02, 141.42)
22 03/28/2022 03:11:15 ( 10.05, 151.95) 03/28/2022 03:14:50 ( 22.67, 148.94)
23 03/28/2022 15:43:08 ( 22.67, 149.18) 03/28/2022 15:46:43 ( 10.05, 146.18)
24 03/29/2022 02:52:13 ( 10.02, 156.71) 03/29/2022 02:55:48 ( 22.64, 153.71)
25 03/29/2022 15:24:06 ( 22.64, 153.93) 03/29/2022 15:27:41 ( 10.02, 150.93)
26 03/30/2022 02:33:11 ( 10.05, 161.46) 03/30/2022 02:36:46 ( 22.67, 158.46)
27 03/30/2022 15:05:04 ( 22.67, 158.70) 03/30/2022 15:08:39 ( 10.05, 155.70)
28 03/31/2022 02:14:56 ( 12.79, 165.59) 03/31/2022 02:17:44 ( 22.65, 163.22)
29 03/31/2022 03:55:39 ( 10.03, 140.85) 03/31/2022 03:57:18 ( 15.85, 139.50)
30 03/31/2022 14:46:01 ( 22.69, 163.46) 03/31/2022 14:49:37 ( 10.02, 160.45)
31 04/01/2022 03:36:36 ( 10.01, 145.61) 04/01/2022 03:40:12 ( 22.69, 142.60)
32 04/01/2022 14:30:07 ( 11.69, 165.59) 04/01/2022 14:30:35 ( 10.04, 165.21)
